SCP
0 0 0 0 0 0 0 0 0 0 0 0 0 0 0 0 0 0 0 0 0 0 0 0 0 0 0 0 0 0 0 0 0 0 0 0 0 0 0 0 0 0 0
0 0 0 0 0 0 0 0 0 0 0 0 0 0 0 0 0 0 0 0 0 0 0 0 0 0 0 0 0 0 0 0 0 0 0 0 0 0 0 0 0 0 0
0 0 0 0 0 0 0 0 0 0 0 0 0 0 0 0 0 0 0 0 0 0 0 0 0 0 0 0 0 0 0 0 0 0 0 0 0 0 0 0 0 0 0
0 0 0 0 0 0 0 0 0 0 0 0 0 0 0 0 0 0 0 0 0 0 0 0 0 0 0 0 0 0 0 0 0 0 0 0 0 0 0 0 0 0 0
0 0 0 0 0 0 0 0 0 0 0 0 0 0 0 0 0 0 0 0 0 0 0 0 0 0 0 0 0 0 0 0 0 0 0 0 0 0 0 0 0 0 0
0 0 0 0 0 0 0 0 0 0 0 0 0 0 0 0 0 0 0 0 0 0 0 0 0 0 0 0 0 0 0 0 0 0 0 0 0 0 0 0 0 0 0
0 0 0 0 0 0 0 0 0 0 0 0 0 0 0 0 0 0 0 0 0 0 0 0 0 0 0 0 0 0 0 0 0 0 0 0 0 0 0 0 0 0 0
0 0 0 0 0 0 0 0 0 0 0 0 0 0 0 0 0 0 0 0 0 0 0 0 0 0 0 0 0 0 0 0 0 0 0 0 0 0 0 0 0 0 0
0 0 0 0 0 0 0 0 0 0 0 0 0 0 0 0 0 0 0 0 0 0 0 0 0 0 0 0 0 0 0 0 0 0 0 0 0 0 0 0 0 0 0
0 0 0 0 0 0 0 0 0 0 0 0 0 0 0 0 0 0 0 0 0 0 0 0 0 0 0 0 0 0 0 0 0 0 0 0 0 0 0 0 0 0 0
0 0 0 0 0 0 0 0 0 0 0 0 0 0 0 0 0 0 0 0 0 0 0 0 0 0 0 0 0 0 0 0 0 0 0 0 0 0 0 0 0 0 0
0 0 0 0 0 0 0 0 0 0 0 0 0 0 0 0 0 0 0 0 0 0 0 0 0 0 0 0 0 0 0 0 0 0 0 0 0 0 0 0 0 0 0
0 0 0 0 0 0 0 0 0 0 0 0 0 0 0 0 0 0 0 0 0 0 0 0 0 0 0 0 0 0 0 0 0 0 0 0 0 0 0 0 0 0 0
0 0 0 0 0 0 0 0 0 0 0 0 0 0 0 0 0 0 0 0 0 0 0 0 0 0 0 0 0 0 0 0 0 0 0 0 0 0 0 0 0 0 0
0 0 0 0 0 0 0 0 0 0 0 0 0 0 0 0 0 0 0 0 0 0 0 0 0 0 0 0 0 0 0 0 0 0 0 0 0 0 0 0 0 0 0
0 0 0 0 0 0 0 0 0 0 0 0 0 0 0 0 0 0 0 0 0 0 0 0 0 0 0 0 0 0 0 0 0 0 0 0 0 0 0 0 0 0 0
0 0 0 0 0 0 0 0 0 0 0 0 0 0 0 0 0 0 0 0 0 0 0 0 0 0 0 0 0 0 0 0 0 0 0 0 0 0 0 0 0 0 0
0 0 0 0 0 0 0 0 0 0 0 0 0 0 0 0 0 0 0 0 0 0 0 0 0 0 0 0 0 0 0 0 0 0 0 0 0 0 0 0 0 0 0
0 0 0 0 0 0 0 0 0 0 0 0 0 0 0 0 0 0 0 0 0 0 0 0 0 0 0 0 0 0 0 0 0 0 0 0 0 0 0 0 0 0 0
0 0 0 0 0 0 0 0 0 0 0 0 0 0 0 0 0 0 0 0 0 0 0 0 0 0 0 0 0 0 0 0 0 0 0 0 0 0 0 0 0 0 0
0 0 0 0 0 0 0 0 0 0 0 0 0 0 0 0 0 0 0 0 0 0 0 0 0 0 0 0 0 0 0 0 0 0 0 0 0 0 0 0 0 0 0
0 0 0 0 0 0 0 0 -0 0 0 0 0 0 0 0 0 0 0 0 0 0 0 0 0 0 0 0 0 0 0 0 0 0 0 0 0 0 0 0 0 0 0
0 0 0 0 0 0 0 0 0 0 0 0 0 0 0 0 0 0 0 0 0 0 0 0 0 0 0 0 0 0 0 0 0 0 0 0 0 0 0 0 0 0 0
0 0 0 0 0 0 0 0 0 0 0 0 0 0 0 0 0 0 0 0 0 0 0 0 0 0 0 0 0 0 0 0 0 0 0 0 0 0 0 0 0 0 0
0 0 0 0 0 0 0 0 0 0 0 0 0 0 0 0 0 0 0 0 0 0 0 0 0 0 0 0 0 0 0 0 0 0 0 0 0 0 0 0 0 0 0
0 0 0 0 0 0 0 0 0 0 0 0 0 0 0 0 0 0 0 0 0 0 0 0 0 0 0 0 0 0 0 0 0 0 0 0 0 0 0 0 0 0 0
Wind_Speed
2 3 7 9 9 10 10 9 9 9 9 10 11 11 10 10 10 10 10 10 9 9 10 10 10 10 10 10 10 10 10 10 11 10 9 8 8 7 7 7 7 4 7
4 4 8 9 9 10 10 10 9 9 9 9 10 10 10 10 10 10 9 9 9 9 9 9 10 10 10 10 10 10 10 10 10 10 9 7 7 7 7 6 6 4 7
5 4 7 9 9 9 10 10 9 9 9 9 10 10 10 10 9 9 9 9 9 9 9 9 9 9 9 9 9 9 9 10 9 9 8 4 4 7 7 7 6 6 7
5 4 5 9 10 9 10 10 10 9 9 9 9 9 9 9 9 9 8 8 8 9 9 9 9 9 9 9 9 9 10 10 10 9 5 4 3 6 7 7 6 6 6
4 4 5 9 9 9 9 10 9 9 9 9 9 8 9 9 9 9 8 8 9 9 9 9 9 9 9 9 9 9 10 10 10 8 5 4 3 6 8 7 7 6 6
3 3 5 8 9 9 9 9 9 9 9 9 8 8 8 8 9 8 9 9 9 9 9 9 9 9 9 9 9 9 10 10 8 5 4 4 3 6 8 7 6 6 6
3 3 5 8 8 8 8 9 8 8 9 9 8 8 8 8 9 9 9 8 8 9 8 9 9 9 9 9 9 10 10 9 6 5 4 4 4 7 8 7 7 7 7
3 3 4 8 8 8 7 8 8 8 8 8 8 8 8 8 9 8 8 8 8 8 8 9 9 9 9 10 10 10 11 9 7 5 4 4 5 7 7 7 7 7 7
2 2 2 3 5 6 7 7 8 7 7 8 8 8 8 8 8 8 7 8 8 8 8 9 9 9 10 10 11 10 10 11 6 4 5 3 6 8 8 7 7 7 7
2 2 2 3 3 3 3 6 8 7 7 7 7 8 8 8 7 7 6 7 8 8 8 9 9 10 10 11 11 11 10 8 5 4 3 4 8 9 8 8 8 8 8
2 2 2 3 3 2 2 4 5 6 7 6 5 8 7 4 4 4 6 7 8 8 9 9 10 11 10 10 11 11 8 4 4 4 3 7 8 8 8 8 8 8 8
3 2 2 3 3 2 2 2 2 2 3 3 3 4 3 3 3 4 6 8 8 8 9 9 10 10 8 4 6 8 3 4 4 3 4 9 8 8 8 8 8 8 7
4 3 3 3 3 3 2 2 1 2 2 3 4 4 4 3 3 3 2 3 4 6 4 5 6 4 4 3 3 3 4 3 3 3 5 9 8 8 8 8 8 8 7
4 4 3 3 3 3 2 2 2 2 2 2 3 4 3 3 3 2 2 2 2 2 3 3 3 4 4 4 4 4 4 3 2 2 4 9 9 8 8 8 8 8 7
5 4 4 4 4 4 3 2 2 2 2 3 3 3 4 3 3 3 2 2 2 2 2 3 3 3 4 4 4 4 4 4 3 3 3 8 10 9 9 9 9 9 9
5 4 4 4 4 4 3 2 2 2 2 2 2 3 4 4 4 3 3 2 2 2 2 2 3 3 3 3 3 3 3 3 3 3 3 5 9 10 10 9 10 10 10
5 4 4 4 4 5 4 4 3 2 2 2 2 3 4 4 4 4 3 2 2 2 3 3 3 3 3 3 3 3 3 3 3 3 3 3 4 8 11 10 10 10 10
4 4 4 4 5 5 4 4 3 2 3 2 2 2 3 4 4 4 3 2 2 2 2 3 2 3 3 2 2 2 2 2 3 3 3 3 3 4 6 10 11 11 10
4 4 4 4 5 5 5 4 4 3 3 2 2 2 3 4 4 3 3 2 3 2 2 2 2 2 2 2 2 2 2 2 2 2 3 3 3 3 3 7 10 10 10
3 3 4 5 5 5 4 3 3 3 2 2 1 2 3 3 4 4 3 3 3 3 2 2 3 3 2 2 2 2 2 2 2 2 2 2 2 3 3 4 4 6 9
3 3 4 4 5 5 3 3 3 2 2 2 1 1 2 3 4 4 3 2 2 3 3 3 3 3 2 1 2 2 2 2 2 2 2 2 2 3 3 3 3 3 3
4 4 4 4 5 5 3 3 3 3 2 2 2 2 2 2 3 3 4 3 2 2 3 3 3 2 1 1 2 2 1 2 2 2 1 1 2 2 3 3 3 3 3
5 5 5 5 5 4 4 4 4 3 3 2 2 2 1 2 2 3 3 3 3 2 2 2 2 3 2 1 1 2 2 2 2 2 1 1 2 1 2 2 2 2 2
4 4 4 5 5 5 5 5 5 4 3 3 3 2 2 2 2 3 3 3 3 3 2 2 2 2 3 1 1 1 2 2 1 2 2 1 2 1 2 2 2 2 2
3 3 4 4 5 5 5 6 5 4 3 3 3 4 3 2 2 2 2 3 3 3 3 2 2 2 2 2 2 1 1 1 2 2 2 3 2 2 1 2 2 2 2
2 2 3 4 4 5 5 5 6 6 5 5 4 4 2 2 2 2 2 2 3 3 3 2 2 3 2 2 1 1 2 2 2 2 2 2 3 3 2 2 2 2 2
Wind_Direction
182 183 159 145 145 136 130 128 124 119 114 111 109 108 105 103 100 97 93 88 82 78 77 77 76 73 71 71 71 72 70 67 65 63 60 59 63 68 71 72 70 61 72
163 172 155 145 142 139 132 128 124 120 119 116 115 113 109 105 103 100 95 91 86 82 78 77 75 73 71 70 71 69 68 67 64 59 55 51 53 66 72 77 80 79 72
141 155 151 143 141 140 136 131 127 126 122 119 117 115 113 109 105 102 97 92 89 86 82 79 77 75 73 71 71 69 67 65 63 59 53 40 44 65 72 74 84 78 71
139 142 146 142 142 137 139 135 131 130 124 120 118 117 115 111 107 102 99 94 91 86 83 81 79 77 76 74 73 71 70 66 64 60 47 33 32 58 65 67 79 80 73
133 139 149 139 142 139 138 138 134 131 129 123 119 117 116 112 107 104 101 96 92 87 85 84 82 79 76 73 73 73 73 69 64 56 43 34 31 56 63 65 69 74 71
131 137 147 139 138 137 138 138 138 134 132 128 123 119 115 113 109 104 101 96 91 87 86 86 83 80 74 72 73 75 76 71 63 50 40 30 24 57 64 66 65 66 63
143 141 147 144 141 136 138 141 138 137 133 132 127 121 117 111 108 101 98 96 94 91 88 86 82 81 76 74 76 77 75 71 64 52 41 26 29 59 63 63 62 62 60
144 142 149 149 144 138 137 143 140 137 135 132 127 119 113 110 105 103 98 99 97 93 90 87 83 82 80 79 78 78 75 69 62 49 35 20 34 53 57 56 57 56 55
126 124 118 131 144 143 137 143 142 136 131 130 126 118 108 104 102 99 99 100 99 94 90 87 85 84 83 82 79 78 72 65 56 40 33 22 40 55 57 55 55 55 53
110 121 119 110 111 118 129 140 140 135 128 124 124 116 104 95 94 92 92 96 96 94 91 88 86 85 82 81 79 75 66 58 45 37 25 24 44 54 60 58 57 56 54
141 140 134 128 121 120 123 128 131 128 123 113 117 115 104 93 88 80 80 90 92 91 92 89 86 83 77 74 76 72 63 48 42 32 17 26 43 51 56 57 56 53 52
189 180 161 152 146 133 128 99 100 104 107 105 107 113 107 98 90 85 77 83 88 85 85 85 83 81 73 63 65 64 55 50 44 25 19 29 39 47 54 58 55 52 50
194 185 175 169 151 137 132 128 111 106 103 104 111 112 111 99 89 79 76 69 71 76 71 72 71 66 69 70 65 60 56 54 40 21 17 30 36 44 51 55 54 49 48
192 196 181 169 162 150 143 137 133 131 122 118 121 121 121 114 100 96 88 80 70 72 78 74 76 71 71 70 72 69 59 54 40 23 16 29 34 42 44 49 51 48 48
200 195 188 171 175 154 141 148 133 133 139 136 131 126 130 128 122 113 101 90 79 76 88 87 83 81 76 71 70 74 65 55 47 37 13 28 35 39 41 42 47 52 53
207 199 190 177 174 153 147 142 139 131 138 131 129 136 135 132 130 122 109 98 86 83 89 99 99 93 82 78 71 68 66 57 50 43 32 25 32 36 39 44 44 44 45
206 193 189 176 161 154 149 145 135 136 129 137 133 137 136 133 136 131 122 112 104 97 91 90 91 85 81 72 66 63 62 55 53 46 41 34 27 33 38 43 41 39 38
196 186 185 174 158 157 153 143 130 124 119 130 130 134 139 134 133 131 126 122 118 104 98 96 95 86 74 71 63 49 52 52 53 52 49 44 38 34 31 41 41 37 34
191 177 171 158 156 156 142 130 122 116 112 109 124 134 139 134 133 126 127 126 120 106 95 100 82 99 92 75 71 55 46 46 41 51 53 50 46 44 34 34 34 31 29
183 171 162 155 147 137 124 116 109 106 105 102 99 125 138 136 134 122 116 122 121 112 97 97 92 80 94 95 77 53 35 31 41 49 46 47 45 47 42 36 27 19 23
159 160 164 157 151 147 142 143 136 139 134 122 112 112 113 129 133 128 124 116 119 120 122 120 109 87 71 73 77 38 16 28 48 45 41 50 43 37 38 35 28 20 5
179 175 170 167 160 164 158 140 128 125 125 121 110 98 111 118 127 130 133 135 120 117 114 112 115 111 78 68 107 101 16 349 358 31 31 54 38 24 24 20 14 11 360
187 186 187 177 166 160 140 115 100 90 85 93 102 106 111 123 121 120 130 132 128 120 129 127 124 132 129 60 76 130 138 223 302 327 357 28 19 17 0 345 352 353 349
202 187 182 172 162 157 148 147 145 148 154 166 141 131 116 116 124 123 129 135 133 127 129 134 120 128 132 134 80 61 112 146 153 314 321 344 351 346 330 327 330 323 328
197 179 178 162 156 153 156 162 151 142 140 124 116 121 119 103 104 117 128 129 131 131 137 131 122 123 134 149 149 129 97 80 110 156 275 310 327 300 289 292 290 293 307
168 167 169 160 156 153 155 156 154 152 144 135 134 138 135 120 107 112 120 128 134 135 141 143 138 132 136 141 143 149 154 155 169 169 218 260 287 289 291 282 269 275 287